Location: Allens Landing
(37.8284°N, 89.7284°W)
Time: 07:44:15
(UTC+00:00)

Vanguard 2 Rocket - Pass Details

Date: 07 November 2024
Orbit: 554 x 3296 km, 32.9° (Epoch: 04 December)

Event Time Altitude Azimuth Distance (km) Brightness Sun altitude
Rises 11:03:55 0° 179° (S) 5,747 11.1 -17.5°
Reaches altitude 10° 11:10:05 10° 158° (SSE) 5,280 11.2 -16.3°
Maximum altitude 11:18:01 15° 128° (SE) 5,349 11.7 -14.8°
Drops below altitude 10° 11:26:59 10° 100° (E) 6,158 12.6 -13.1°
Sets 11:35:15 0° 82° (E) 7,277 13.0 -11.5°
